﻿_id,日時,平均風速(m/s),平均風向,最大瞬間風速(m/s),最大風速時風向,気温(℃),湿度(%),10分間移動積算雨量(mm),1時間移動積算雨量(mm),日雨量(mm),累計雨量(mm),日射(日積算)(MJ/m2),日照(日積算)(min),現地気圧(hPa),海面気圧(hPa)
1,2019-08-12T00:00:00,0.7,西,1.1,西,28.6,74.4,0,0,0,0,25.45,658,994.5,1007.6
2,2019-08-12T00:01:00,0.7,西,1.4,西,28.3,74.2,0,0,0,0,0,0,994.4,1007.5
3,2019-08-12T00:02:00,0.7,西,1.4,西,28.3,74.7,0,0,0,0,0,0,994.4,1007.5
4,2019-08-12T00:03:00,0.6,西,1.4,西,28.2,74.9,0,0,0,0,0,0,994.4,1007.5
5,2019-08-12T00:04:00,0.7,西,1.4,西,28.3,75.1,0,0,0,0,0,0,994.4,1007.5
6,2019-08-12T00:05:00,0.7,西,1.4,西,28.4,74.8,0,0,0,0,0,0,994.3,1007.4
7,2019-08-12T00:06:00,0.8,西,1.4,西,28.4,74.6,0,0,0,0,0,0,994.3,1007.4
8,2019-08-12T00:07:00,0.8,西,1.4,西,28.4,74.5,0,0,0,0,0,0,994.3,1007.4
9,2019-08-12T00:08:00,,"",,"",,,,,,,,,,
10,2019-08-12T00:09:00,0.7,西,1.4,西,28.4,74,0,0,0,0,0,0,994.3,1007.4
11,2019-08-12T00:10:00,0.8,西,1.4,西,28.4,74.2,0,0,0,0,0,0,994.3,1007.4
12,2019-08-12T00:11:00,0.8,西,1.1,西,28.4,74.4,0,0,0,0,0,0,994.2,1007.3
13,2019-08-12T00:12:00,0.8,西,1.1,西,28.3,74.4,0,0,0,0,0,0,994.2,1007.3
14,2019-08-12T00:13:00,0.8,西,1.1,西,28.2,74.6,0,0,0,0,0,0,994.2,1007.3
15,2019-08-12T00:14:00,0.7,西,1.1,西,28.1,75,0,0,0,0,0,0,994.2,1007.3
16,2019-08-12T00:15:00,0.7,西,1.1,西,27.9,75.9,0,0,0,0,0,0,994.2,1007.3
17,2019-08-12T00:16:00,0.7,西,2.1,東,27.8,76.6,0,0,0,0,0,0,994.2,1007.4
18,2019-08-12T00:17:00,0.8,西北西,2.1,東,27.8,76.8,0,0,0,0,0,0,994.2,1007.4
19,2019-08-12T00:18:00,0.8,西北西,2.1,東,28,76.9,0,0,0,0,0,0,994.1,1007.2
20,2019-08-12T00:19:00,0.8,北西,2.1,東,27.9,76.6,0,0,0,0,0,0,994.1,1007.2
21,2019-08-12T00:20:00,0.8,北東,2.1,東,27.9,76.6,0,0,0,0,0,0,994.1,1007.2
22,2019-08-12T00:21:00,0.8,東北東,2.1,東,28.1,76.4,0,0,0,0,0,0,994.1,1007.2
23,2019-08-12T00:22:00,0.8,東,2.1,東,28,76.2,0,0,0,0,0,0,994.1,1007.2
24,2019-08-12T00:23:00,0.7,東,2.1,東,27.9,76.1,0,0,0,0,0,0,994.1,1007.2
25,2019-08-12T00:24:00,0.8,東,2.1,東,28,76.4,0,0,0,0,0,0,994.1,1007.2
26,2019-08-12T00:25:00,0.8,東,2.1,東,28.1,76.4,0,0,0,0,0,0,994.1,1007.2
27,2019-08-12T00:26:00,0.8,東,1.8,東北東,28.2,76.2,0,0,0,0,0,0,994.1,1007.2
28,2019-08-12T00:27:00,0.6,東,1.6,東,28,75.7,0,0,0,0,0,0,994.1,1007.2
29,2019-08-12T00:28:00,0.5,東,1.1,東,27.9,75.8,0,0,0,0,0,0,994,1007.1
30,2019-08-12T00:29:00,0.4,東,1.1,東,27.8,76.2,0,0,0,0,0,0,994,1007.1
31,2019-08-12T00:30:00,0.4,東北東,1,東,27.9,76.6,0,0,0,0,0,0,994,1007.1
32,2019-08-12T00:31:00,0.4,東北東,1,東,28,76.4,0,0,0,0,0,0,994,1007.1
33,2019-08-12T00:32:00,0.4,北東,0.9,西,28,76.4,0,0,0,0,0,0,994,1007.1
34,2019-08-12T00:33:00,0.4,北北東,0.9,西,28,76.5,0,0,0,0,0,0,994,1007.1
35,2019-08-12T00:34:00,0.3,北北西,0.9,西,27.8,76.5,0,0,0,0,0,0,994,1007.1
36,2019-08-12T00:35:00,0.4,西北西,1.4,西北西,27.6,76.7,0,0,0,0,0,0,994,1007.2
37,2019-08-12T00:36:00,0.4,西,1.5,西,27.8,77.2,0,0,0,0,0,0,994,1007.1
38,2019-08-12T00:37:00,0.6,西,1.5,西,27.9,77.3,0,0,0,0,0,0,994,1007.1
39,2019-08-12T00:38:00,0.7,西,1.5,西,28,77,0,0,0,0,0,0,993.9,1007
40,2019-08-12T00:39:00,0.8,西,1.5,西,27.7,76.9,0,0,0,0,0,0,993.9,1007.1
41,2019-08-12T00:40:00,0.9,西,1.5,西,27.9,77.3,0,0,0,0,0,0,993.9,1007
42,2019-08-12T00:41:00,0.9,西,1.5,西,28,77.2,0,0,0,0,0,0,993.9,1007
43,2019-08-12T00:42:00,1,西,1.7,西,27.8,77,0,0,0,0,0,0,993.9,1007
44,2019-08-12T00:43:00,1.1,西,1.7,西,27.6,77.2,0,0,0,0,0,0,993.9,1007.1
45,2019-08-12T00:44:00,1.2,西,1.7,西,27.5,77.6,0,0,0,0,0,0,993.9,1007.1
46,2019-08-12T00:45:00,1.3,西,1.7,西,27.3,78,0,0,0,0,0,0,993.9,1007.1
47,2019-08-12T00:46:00,,"",,"",,,,,,,,,,
48,2019-08-12T00:47:00,1.4,西,2.4,西,27.5,77.9,0,0,0,0,0,0,993.9,1007.1
49,2019-08-12T00:48:00,1.5,西,2.6,西,27.1,78.2,0,0,0,0,0,0,993.9,1007.1
50,2019-08-12T00:49:00,1.6,西,2.9,西,26.9,79.3,0,0,0,0,0,0,993.8,1007
51,2019-08-12T00:50:00,1.7,西,3,西,26.8,80.3,0,0,0,0,0,0,993.8,1007
52,2019-08-12T00:51:00,1.7,西,3,西,26.8,81.1,0,0,0,0,0,0,993.8,1007
53,2019-08-12T00:52:00,1.9,西,3,西,26.8,81.3,0,0,0,0,0,0,993.8,1007
54,2019-08-12T00:53:00,1.9,西,3,西,26.8,81.5,0,0,0,0,0,0,993.8,1007
55,2019-08-12T00:54:00,2.1,西,3,西,26.5,81.6,0,0,0,0,0,0,993.8,1007
56,2019-08-12T00:55:00,2.2,西,3,西,26.5,82.5,0,0,0,0,0,0,993.7,1006.9
57,2019-08-12T00:56:00,2.2,西,3,西,26.8,82.8,0,0,0,0,0,0,993.7,1006.9
58,2019-08-12T00:57:00,2.2,西,3,西,26.5,82.4,0,0,0,0,0,0,993.7,1006.9
59,2019-08-12T00:58:00,2.2,西,3,西,26.4,82.9,0,0,0,0,0,0,993.7,1006.9
60,2019-08-12T00:59:00,2.3,西,3.1,西,26.4,83.7,0,0,0,0,0,0,993.7,1006.9
61,2019-08-12T01:00:00,2.2,西,3.1,西,26.4,83.9,0,0,0,0,0,0,993.7,1006.9
62,2019-08-12T01:01:00,2.2,西,3.1,西,26.4,84.1,0,0,0,0,0,0,993.7,1006.9
63,2019-08-12T01:02:00,2.2,西,3.1,西,26.4,84.4,0,0,0,0,0,0,993.7,1006.9
64,2019-08-12T01:03:00,2.1,西,3.1,西,26.6,84.3,0,0,0,0,0,0,993.7,1006.9
65,2019-08-12T01:04:00,2.1,西,3.1,西,26.6,83.8,0,0,0,0,0,0,993.7,1006.9
66,2019-08-12T01:05:00,2,西,3.1,西,26.7,83.5,0,0,0,0,0,0,993.7,1006.9
67,2019-08-12T01:06:00,2,西,3.1,西,26.7,83.3,0,0,0,0,0,0,993.7,1006.9
68,2019-08-12T01:07:00,1.9,西,3.1,西,26.7,83.1,0,0,0,0,0,0,993.7,1006.9
69,2019-08-12T01:08:00,1.9,西,3.1,西,26.6,83.1,0,0,0,0,0,0,993.7,1006.9
70,2019-08-12T01:09:00,1.8,西,2.8,西,26.5,83.2,0,0,0,0,0,0,993.7,1006.9
71,2019-08-12T01:10:00,1.8,西,2.4,西,26.3,83.5,0,0,0,0,0,0,993.7,1006.9
72,2019-08-12T01:11:00,1.8,西,2.3,西,26.3,84.2,0,0,0,0,0,0,993.7,1006.9
73,2019-08-12T01:12:00,1.8,西,2.4,西,26.3,84.6,0,0,0,0,0,0,993.6,1006.8
74,2019-08-12T01:13:00,1.8,西,2.4,西,26.1,84.6,0,0,0,0,0,0,993.6,1006.8
75,2019-08-12T01:14:00,1.9,西,2.6,西,26.1,85.1,0,0,0,0,0,0,993.6,1006.8
76,2019-08-12T01:15:00,2,西,2.8,西,26.2,85.5,0,0,0,0,0,0,993.6,1006.8
77,2019-08-12T01:16:00,2.1,西,2.8,西,26.2,85.5,0,0,0,0,0,0,993.6,1006.8
78,2019-08-12T01:17:00,2.1,西,3,西,26.2,85.4,0,0,0,0,0,0,993.6,1006.8
79,2019-08-12T01:18:00,2.1,西,3,西,26.2,85.4,0,0,0,0,0,0,993.6,1006.8
80,2019-08-12T01:19:00,2.2,西,3,西,26.3,85.4,0,0,0,0,0,0,993.6,1006.8
81,2019-08-12T01:20:00,2.2,西,3,西,26.6,85.1,0,0,0,0,0,0,993.6,1006.8
82,2019-08-12T01:21:00,,"",,"",,,,,,,,,,
83,2019-08-12T01:22:00,2.3,西,3,西,26.6,84.3,0,0,0,0,0,0,993.5,1006.7
84,2019-08-12T01:23:00,2.3,西,3,西,26.5,83.9,0,0,0,0,0,0,993.5,1006.7
85,2019-08-12T01:24:00,2.3,西,3,西,26.3,83.9,0,0,0,0,0,0,993.5,1006.7
86,2019-08-12T01:25:00,2.2,西,3,西,26.2,84.4,0,0,0,0,0,0,993.5,1006.7
87,2019-08-12T01:26:00,2.2,西,3,西,26.3,84.8,0,0,0,0,0,0,993.5,1006.7
88,2019-08-12T01:27:00,2.2,西,2.7,西,26.2,84.5,0,0,0,0,0,0,993.5,1006.7
89,2019-08-12T01:28:00,2.2,西,2.6,西,26.1,84.6,0,0,0,0,0,0,993.5,1006.7
90,2019-08-12T01:29:00,2.2,西,2.8,西,26.1,85,0,0,0,0,0,0,993.5,1006.7
91,2019-08-12T01:30:00,2.2,西,2.8,西,26.3,85.3,0,0,0,0,0,0,993.5,1006.7
92,2019-08-12T01:31:00,2.3,西,2.8,西,26.2,84.7,0,0,0,0,0,0,993.5,1006.7
93,2019-08-12T01:32:00,2.3,西,2.8,西,26.1,84.9,0,0,0,0,0,0,993.5,1006.7
94,2019-08-12T01:33:00,2.3,西,2.8,西,26.1,85,0,0,0,0,0,0,993.5,1006.7
95,2019-08-12T01:34:00,2.3,西,2.8,西,26.1,85.3,0,0,0,0,0,0,993.5,1006.7
96,2019-08-12T01:35:00,2.3,西,2.8,西,26.2,85.1,0,0,0,0,0,0,993.5,1006.7
97,2019-08-12T01:36:00,2.3,西,2.8,西,26.1,84.9,0,0,0,0,0,0,993.5,1006.7
98,2019-08-12T01:37:00,2.3,西,2.8,西,26.1,85.3,0,0,0,0,0,0,993.4,1006.6
99,2019-08-12T01:38:00,2.2,西,2.8,西,26.3,85.6,0,0,0,0,0,0,993.4,1006.6
100,2019-08-12T01:39:00,2.2,西,2.8,西,26.1,84.8,0,0,0,0,0,0,993.4,1006.6
101,2019-08-12T01:40:00,2.1,西,2.7,西,26.3,85.1,0,0,0,0,0,0,993.4,1006.6
102,2019-08-12T01:41:00,2.1,西,2.7,西,26.2,84.8,0,0,0,0,0,0,993.4,1006.6
103,2019-08-12T01:42:00,2.1,西,2.6,西,25.9,84.7,0,0,0,0,0,0,993.4,1006.6
104,2019-08-12T01:43:00,2.1,西,3,西,25.9,85.4,0,0,0,0,0,0,993.4,1006.6
105,2019-08-12T01:44:00,2.2,西,3,西,25.8,85.6,0,0,0,0,0,0,993.4,1006.6
106,2019-08-12T01:45:00,2.1,西,3,西,25.7,86.3,0,0,0,0,0,0,993.4,1006.6
107,2019-08-12T01:46:00,2.2,西,3,西,25.7,86.8,0,0,0,0,0,0,993.4,1006.6
108,2019-08-12T01:47:00,2.2,西,3,西,25.7,87,0,0,0,0,0,0,993.4,1006.6
109,2019-08-12T01:48:00,2.2,西,3,西,25.7,87.1,0,0,0,0,0,0,993.3,1006.5
110,2019-08-12T01:49:00,2.3,西,3,西,25.8,87.1,0,0,0,0,0,0,993.4,1006.6
111,2019-08-12T01:50:00,2.2,西,3,西,25.8,87,0,0,0,0,0,0,993.3,1006.5
112,2019-08-12T01:51:00,2.2,西,3,西,26.2,86.9,0,0,0,0,0,0,993.3,1006.5
113,2019-08-12T01:52:00,2.1,西,3,西,26.3,85.8,0,0,0,0,0,0,993.3,1006.5
114,2019-08-12T01:53:00,2.1,西,2.9,西,26.3,84.9,0,0,0,0,0,0,993.3,1006.5
115,2019-08-12T01:54:00,2.1,西,2.9,西,26.6,84.6,0,0,0,0,0,0,993.3,1006.5
116,2019-08-12T01:55:00,2,西,2.9,西,26.5,83.9,0,0,0,0,0,0,993.3,1006.5
117,2019-08-12T01:56:00,2,西北西,2.8,西,26.5,83.8,0,0,0,0,0,0,993.3,1006.5
118,2019-08-12T01:57:00,,"",,"",,,,,,,,,,
119,2019-08-12T01:58:00,1.9,西北西,2.5,西,26.1,83.8,0,0,0,0,0,0,993.3,1006.5
120,2019-08-12T01:59:00,2,西北西,2.8,西,26.1,84.5,0,0,0,0,0,0,993.3,1006.5
121,2019-08-12T02:00:00,2,西北西,2.8,西,25.8,84.7,0,0,0,0,0,0,993.2,1006.4
122,2019-08-12T02:01:00,2,西,2.8,西,25.7,85.5,0,0,0,0,0,0,993.3,1006.5
123,2019-08-12T02:02:00,2,西,2.8,西,25.8,86.3,0,0,0,0,0,0,993.3,1006.5
124,2019-08-12T02:03:00,2,西,2.8,西,26,86.2,0,0,0,0,0,0,993.3,1006.5
125,2019-08-12T02:04:00,2,西,2.8,西,26.1,85.9,0,0,0,0,0,0,993.3,1006.5
126,2019-08-12T02:05:00,2,西,2.8,西,26.1,85.6,0,0,0,0,0,0,993.3,1006.5
127,2019-08-12T02:06:00,2,西,2.8,西,26,85.2,0,0,0,0,0,0,993.4,1006.6
128,2019-08-12T02:07:00,1.9,西,2.8,西,25.9,85.2,0,0,0,0,0,0,993.4,1006.6
129,2019-08-12T02:08:00,1.9,西,2.8,西,26,85.6,0,0,0,0,0,0,993.3,1006.5
130,2019-08-12T02:09:00,1.9,西,2.6,西,25.9,85.4,0,0,0,0,0,0,993.3,1006.5
131,2019-08-12T02:10:00,1.8,西,2.6,西,25.8,85.5,0,0,0,0,0,0,993.4,1006.6
132,2019-08-12T02:11:00,1.8,西,2.4,西,25.9,86,0,0,0,0,0,0,993.3,1006.5
133,2019-08-12T02:12:00,1.8,西,2.5,西,25.8,85.9,0,0,0,0,0,0,993.4,1006.6
134,2019-08-12T02:13:00,1.8,西,2.5,西,25.9,86.2,0,0,0,0,0,0,993.4,1006.6
135,2019-08-12T02:14:00,1.8,西,2.5,西,25.8,86.1,0,0,0,0,0,0,993.4,1006.6
136,2019-08-12T02:15:00,1.8,西,2.5,西,26.1,86.4,0,0,0,0,0,0,993.4,1006.6
137,2019-08-12T02:16:00,1.9,西,2.5,西,25.9,85.4,0,0,0,0,0,0,993.4,1006.6
138,2019-08-12T02:17:00,1.9,西,2.5,西,25.7,85.7,0,0,0,0,0,0,993.4,1006.6
139,2019-08-12T02:18:00,1.9,西,2.5,西,25.7,86.3,0,0,0,0,0,0,993.4,1006.6
140,2019-08-12T02:19:00,2,西,2.7,西,25.7,86.5,0,0,0,0,0,0,993.4,1006.6
141,2019-08-12T02:20:00,2,西,2.7,西,25.8,86.7,0,0,0,0,0,0,993.4,1006.6
142,2019-08-12T02:21:00,2,西,2.7,西,25.7,86.4,0,0,0,0,0,0,993.3,1006.5
143,2019-08-12T02:22:00,2.1,西,2.7,西,25.7,86.4,0,0,0,0,0,0,993.3,1006.5
144,2019-08-12T02:23:00,2.1,西,2.7,西,25.7,86.4,0,0,0,0,0,0,993.3,1006.5
145,2019-08-12T02:24:00,2.1,西,2.7,西,25.6,86.6,0,0,0,0,0,0,993.3,1006.5
146,2019-08-12T02:25:00,2,西,2.7,西,25.5,87,0,0,0,0,0,0,993.3,1006.5
147,2019-08-12T02:26:00,2.1,西,2.8,西,25.7,87.3,0,0,0,0,0,0,993.3,1006.5
148,2019-08-12T02:27:00,2.1,西,2.9,西,25.6,87,0,0,0,0,0,0,993.3,1006.5
149,2019-08-12T02:28:00,2.1,西,2.9,西,25.6,87,0,0,0,0,0,0,993.3,1006.5
150,2019-08-12T02:29:00,2,西,2.9,西,25.7,87.1,0,0,0,0,0,0,993.3,1006.5
151,2019-08-12T02:30:00,2,西,2.9,西,25.6,86.9,0,0,0,0,0,0,993.2,1006.4
152,2019-08-12T02:31:00,2,西,3.2,西,25.6,86.9,0,0,0,0,0,0,993.2,1006.4
153,2019-08-12T02:32:00,2,西,3.2,西,25.6,87,0,0,0,0,0,0,993.2,1006.4
154,2019-08-12T02:33:00,,"",,"",,,,,,,,,,
155,2019-08-12T02:34:00,2,西,3.2,西,25.5,87.2,0,0,0,0,0,0,993.1,1006.3
156,2019-08-12T02:35:00,2.1,西,3.2,西,25.7,87.2,0,0,0,0,0,0,993.1,1006.3
157,2019-08-12T02:36:00,2,西,3.2,西,25.7,86.7,0,0,0,0,0,0,993.1,1006.3
158,2019-08-12T02:37:00,2,西,3.2,西,25.8,86.9,0,0,0,0,0,0,993.1,1006.3
159,2019-08-12T02:38:00,2,西,3.2,西,25.9,86.5,0,0,0,0,0,0,993.1,1006.3
160,2019-08-12T02:39:00,2.1,西北西,3.2,西,25.9,86,0,0,0,0,0,0,993.1,1006.3
161,2019-08-12T02:40:00,2.1,西北西,3.2,西,26.2,85.6,0,0,0,0,0,0,993.1,1006.3
162,2019-08-12T02:41:00,2.1,西北西,2.8,西北西,26.3,84.6,0,0,0,0,0,0,993.1,1006.3
163,2019-08-12T02:42:00,2,西北西,2.8,西北西,26.1,83.8,0,0,0,0,0,0,993.1,1006.3
164,2019-08-12T02:43:00,2.1,西北西,2.8,西北西,26,84.1,0,0,0,0,0,0,993.1,1006.3
165,2019-08-12T02:44:00,2.1,西北西,2.8,西北西,25.9,84.3,0,0,0,0,0,0,993.1,1006.3
166,2019-08-12T02:45:00,2.1,西北西,3,西北西,25.7,84.4,0,0,0,0,0,0,993.1,1006.3
167,2019-08-12T02:46:00,2.1,西北西,3.1,西北西,25.7,85.3,0,0,0,0,0,0,993.2,1006.4
168,2019-08-12T02:47:00,2.1,西北西,3.1,西北西,26.1,85.5,0,0,0,0,0,0,993.2,1006.4
169,2019-08-12T02:48:00,2.1,西北西,3.1,西北西,26.3,84.8,0,0,0,0,0,0,993.2,1006.4
170,2019-08-12T02:49:00,2.1,西北西,3.1,西北西,26.3,84,0,0,0,0,0,0,993.2,1006.4
171,2019-08-12T02:50:00,2,西北西,3.1,西北西,26.3,83.8,0,0,0,0,0,0,993.3,1006.5
172,2019-08-12T02:51:00,1.9,西北西,3.1,西北西,26.1,83.3,0,0,0,0,0,0,993.3,1006.5
173,2019-08-12T02:52:00,1.9,西北西,3.1,西北西,26.1,83.4,0,0,0,0,0,0,993.3,1006.5
174,2019-08-12T02:53:00,1.9,西北西,3.1,西北西,26.4,83.3,0,0,0,0,0,0,993.3,1006.5
175,2019-08-12T02:54:00,1.8,西北西,3.1,西北西,26.4,82.6,0,0,0,0,0,0,993.3,1006.5
176,2019-08-12T02:55:00,1.8,北西,3.1,西北西,26.4,82.3,0,0,0,0,0,0,993.3,1006.5
177,2019-08-12T02:56:00,1.7,北西,2.5,西北西,26.5,82.1,0,0,0,0,0,0,993.3,1006.5
178,2019-08-12T02:57:00,1.7,西北西,2.5,西北西,26.2,82.1,0,0,0,0,0,0,993.3,1006.5
179,2019-08-12T02:58:00,1.7,西北西,2.6,西北西,25.8,82.8,0,0,0,0,0,0,993.3,1006.5
180,2019-08-12T02:59:00,1.8,西北西,2.6,西北西,25.5,83.7,0,0,0,0,0,0,993.3,1006.5
181,2019-08-12T03:00:00,1.8,西北西,2.6,西北西,25.5,85.2,0,0,0,0,0,0,993.3,1006.5
182,2019-08-12T03:01:00,1.9,西北西,2.6,西北西,25.6,85.9,0,0,0,0,0,0,993.3,1006.5
183,2019-08-12T03:02:00,1.9,西北西,2.6,西北西,25.6,85.7,0,0,0,0,0,0,993.3,1006.5
184,2019-08-12T03:03:00,1.9,西北西,2.6,西北西,25.5,85.9,0,0,0,0,0,0,993.3,1006.5
185,2019-08-12T03:04:00,1.9,西北西,2.6,西北西,25.4,86.2,0,0,0,0,0,0,993.2,1006.4
186,2019-08-12T03:05:00,1.9,西北西,2.6,西北西,26,86.6,0,0,0,0,0,0,993.3,1006.5
187,2019-08-12T03:06:00,1.9,西,2.6,西北西,26.3,85.1,0,0,0,0,0,0,993.3,1006.5
188,2019-08-12T03:07:00,1.8,西,2.6,西北西,26.4,83.9,0,0,0,0,0,0,993.3,1006.5
189,2019-08-12T03:08:00,1.8,西,2.6,西,26.3,83.3,0,0,0,0,0,0,993.2,1006.4
190,2019-08-12T03:09:00,1.7,西,2.6,西,26.2,83,0,0,0,0,0,0,993.2,1006.4
191,2019-08-12T03:10:00,1.6,西,2.6,西,26.2,83.2,0,0,0,0,0,0,993.2,1006.4
192,2019-08-12T03:11:00,,"",,"",,,,,,,,,,
193,2019-08-12T03:12:00,1.4,西,2.3,西,26.2,83.4,0,0,0,0,0,0,993.3,1006.5
194,2019-08-12T03:13:00,1.3,西,2.1,西,26.1,83.4,0,0,0,0,0,0,993.3,1006.5
195,2019-08-12T03:14:00,1.3,西,2.1,西,26.1,83.4,0,0,0,0,0,0,993.3,1006.5
196,2019-08-12T03:15:00,1.3,西,2.1,西,25.9,83.4,0,0,0,0,0,0,993.3,1006.5
197,2019-08-12T03:16:00,1.2,西,2.1,西,26.1,83.7,0,0,0,0,0,0,993.3,1006.5
198,2019-08-12T03:17:00,1.2,西,1.9,西南西,25.7,83.5,0,0,0,0,0,0,993.2,1006.4
199,2019-08-12T03:18:00,1.3,西,2.1,西,25.3,84.4,0,0,0,0,0,0,993.2,1006.4
200,2019-08-12T03:19:00,1.3,西,2.5,西,25.2,85.8,0,0,0,0,0,0,993.2,1006.5
201,2019-08-12T03:20:00,1.3,西,2.5,西,25,86.6,0,0,0,0,0,0,993.2,1006.5
202,2019-08-12T03:21:00,1.4,西,2.5,西,25,87.4,0,0,0,0,0,0,993.2,1006.5
203,2019-08-12T03:22:00,1.4,西,2.5,西,25,87.8,0,0,0,0,0,0,993.2,1006.5
204,2019-08-12T03:23:00,1.5,西,2.5,西,25.1,88.4,0,0,0,0,0,0,993.2,1006.5
205,2019-08-12T03:24:00,1.5,西,2.5,西,25.6,88.6,0,0,0,0,0,0,993.2,1006.4
206,2019-08-12T03:25:00,1.5,西,2.5,西,25.8,87.7,0,0,0,0,0,0,993.2,1006.4
207,2019-08-12T03:26:00,1.5,西,2.5,西,26,86.3,0,0,0,0,0,0,993.2,1006.4
208,2019-08-12T03:27:00,1.5,西,2.5,西,25.9,85.1,0,0,0,0,0,0,993.2,1006.4
209,2019-08-12T03:28:00,1.5,西,2.5,西,25.6,84.6,0,0,0,0,0,0,993.2,1006.4
210,2019-08-12T03:29:00,1.6,西,2.4,西,25.5,85.1,0,0,0,0,0,0,993.1,1006.3
211,2019-08-12T03:30:00,1.6,西,2.6,西,25.2,85.3,0,0,0,0,0,0,993.1,1006.4
212,2019-08-12T03:31:00,1.7,西,2.6,西,25.3,86.6,0,0,0,0,0,0,993.1,1006.3
213,2019-08-12T03:32:00,1.7,西,2.6,西,25.3,86.8,0,0,0,0,0,0,993.1,1006.3
214,2019-08-12T03:33:00,1.7,西,2.6,西,25.6,86.9,0,0,0,0,0,0,993.1,1006.3
215,2019-08-12T03:34:00,1.6,西,2.6,西,25.5,86.3,0,0,0,0,0,0,993.1,1006.3
216,2019-08-12T03:35:00,1.6,西,2.6,西,25.8,86.6,0,0,0,0,0,0,993.1,1006.3
217,2019-08-12T03:36:00,1.5,西,2.6,西,25.7,85.8,0,0,0,0,0,0,993.1,1006.3
218,2019-08-12T03:37:00,1.5,西,2.6,西,25.5,85.5,0,0,0,0,0,0,993.1,1006.3
219,2019-08-12T03:38:00,1.5,西,2.6,西,25.1,85.8,0,0,0,0,0,0,993.1,1006.4
220,2019-08-12T03:39:00,1.4,西,2.6,西,25.2,86.9,0,0,0,0,0,0,993.1,1006.4
221,2019-08-12T03:40:00,1.4,西,2.6,西南西,25.4,87.3,0,0,0,0,0,0,993.1,1006.3
222,2019-08-12T03:41:00,1.4,西,2.6,西南西,25.1,86.6,0,0,0,0,0,0,993.1,1006.4
223,2019-08-12T03:42:00,1.5,西,3.3,西,24.9,87,0,0,0,0,0,0,993.1,1006.4
224,2019-08-12T03:43:00,1.6,西,3.4,西,24.8,87.8,0,0,0,0,0,0,993.1,1006.4
225,2019-08-12T03:44:00,1.7,西,3.4,西,24.7,88.7,0,0,0,0,0,0,993.2,1006.5
226,2019-08-12T03:45:00,1.9,西,3.4,西,24.7,89.1,0,0,0,0,0,0,993.2,1006.5
227,2019-08-12T03:46:00,2,西,3.4,西,24.8,89.8,0,0,0,0,0,0,993.2,1006.5
228,2019-08-12T03:47:00,2.1,西,3.4,西,24.8,89.7,0,0,0,0,0,0,993.2,1006.5
229,2019-08-12T03:48:00,2.2,西,3.4,西,24.7,89.6,0,0,0,0,0,0,993.2,1006.5
230,2019-08-12T03:49:00,,"",,"",,,,,,,,,,
231,2019-08-12T03:50:00,2.4,西,3.4,西,24.6,90.1,0,0,0,0,0,0,993.2,1006.5
232,2019-08-12T03:51:00,2.5,西,3.4,西,24.6,90.3,0,0,0,0,0,0,993.2,1006.5
233,2019-08-12T03:52:00,2.5,西,3.8,西,24.6,90.8,0,0,0,0,0,0,993.1,1006.4
234,2019-08-12T03:53:00,2.6,西,3.8,西,24.6,90.7,0,0,0,0,0,0,993.2,1006.5
235,2019-08-12T03:54:00,2.6,西,3.8,西,24.6,90.8,0,0,0,0,0,0,993.2,1006.5
236,2019-08-12T03:55:00,2.7,西,3.8,西,24.5,90.9,0,0,0,0,0,0,993.2,1006.5
237,2019-08-12T03:56:00,2.8,西,3.8,西,24.6,91.1,0,0,0,0,0,0,993.2,1006.5
238,2019-08-12T03:57:00,2.8,西,3.8,西,24.6,91,0,0,0,0,0,0,993.2,1006.5
239,2019-08-12T03:58:00,2.8,西,3.8,西,24.5,90.8,0,0,0,0,0,0,993.2,1006.5
240,2019-08-12T03:59:00,2.8,西,3.8,西,24.6,91.1,0,0,0,0,0,0,993.2,1006.5
241,2019-08-12T04:00:00,2.7,西,3.8,西,25,91.1,0,0,0,0,0,0,993.2,1006.5
242,2019-08-12T04:01:00,2.6,西,3.8,西,25.3,90,0,0,0,0,0,0,993.2,1006.4
243,2019-08-12T04:02:00,2.4,西,3.7,西,25.4,88.5,0,0,0,0,0,0,993.2,1006.4
244,2019-08-12T04:03:00,2.2,西,3.7,西,25.5,87.7,0,0,0,0,0,0,993.2,1006.4
245,2019-08-12T04:04:00,2.1,西,3.7,西,25.7,87,0,0,0,0,0,0,993.3,1006.5
246,2019-08-12T04:05:00,1.9,西北西,3.4,西,25.7,86,0,0,0,0,0,0,993.3,1006.5
247,2019-08-12T04:06:00,1.7,西北西,3.4,西,25.8,85.4,0,0,0,0,0,0,993.3,1006.5
248,2019-08-12T04:07:00,1.6,西北西,2.7,西,25.7,84.8,0,0,0,0,0,0,993.3,1006.5
249,2019-08-12T04:08:00,1.5,西北西,2.7,西,25.6,84.6,0,0,0,0,0,0,993.3,1006.5
250,2019-08-12T04:09:00,1.5,西北西,2.5,西北西,25.6,84.9,0,0,0,0,0,0,993.3,1006.5
251,2019-08-12T04:10:00,1.5,西北西,2.5,西北西,25.5,84.7,0,0,0,0,0,0,993.3,1006.5
252,2019-08-12T04:11:00,1.6,西北西,2.7,西北西,25.4,85.1,0,0,0,0,0,0,993.3,1006.5
253,2019-08-12T04:12:00,1.6,西北西,2.7,西北西,25.4,85.7,0,0,0,0,0,0,993.3,1006.5
254,2019-08-12T04:13:00,1.7,西北西,2.7,西北西,25.3,85.7,0,0,0,0,0,0,993.3,1006.6
255,2019-08-12T04:14:00,1.8,西北西,2.7,西北西,25.5,85.9,0,0,0,0,0,0,993.2,1006.4
256,2019-08-12T04:15:00,1.9,西北西,2.7,西北西,25.7,85.5,0,0,0,0,0,0,993.2,1006.4
257,2019-08-12T04:16:00,1.9,西北西,2.7,西北西,25.8,84.9,0,0,0,0,0,0,993.2,1006.4
258,2019-08-12T04:17:00,1.8,西北西,2.7,西北西,25.9,84.4,0,0,0,0,0,0,993.2,1006.4
259,2019-08-12T04:18:00,,"",,"",,,,,,,,,,
260,2019-08-12T04:19:00,1.7,西北西,2.7,西北西,26.2,84.1,0,0,0,0,0,0,993.3,1006.5
261,2019-08-12T04:20:00,1.6,西北西,2.7,西北西,25.8,83.5,0,0,0,0,0,0,993.3,1006.5
262,2019-08-12T04:21:00,1.5,西北西,2.6,西北西,26,84,0,0,0,0,0,0,993.3,1006.5
263,2019-08-12T04:22:00,1.3,西北西,2.4,西北西,25.9,83.7,0,0,0,0,0,0,993.3,1006.5
264,2019-08-12T04:23:00,1.2,北西,2.3,西北西,26.2,83.5,0,0,0,0,0,0,993.3,1006.5
265,2019-08-12T04:24:00,1.1,北西,2.3,西北西,26.3,82.8,0,0,0,0,0,0,993.3,1006.5
266,2019-08-12T04:25:00,0.9,北西,1.8,西北西,26.4,82.4,0,0,0,0,0,0,993.3,1006.5
267,2019-08-12T04:26:00,0.9,北西,1.5,西,26.3,81.7,0,0,0,0,0,0,993.3,1006.5
268,2019-08-12T04:27:00,0.9,西北西,1.5,西,26.1,81.9,0,0,0,0,0,0,993.3,1006.5
269,2019-08-12T04:28:00,0.8,西北西,1.5,西,26,82.5,0,0,0,0,0,0,993.4,1006.6
270,2019-08-12T04:29:00,0.8,西北西,1.2,西北西,26.1,82.9,0,0,0,0,0,0,993.4,1006.6
271,2019-08-12T04:30:00,0.8,西北西,1.3,西北西,25.6,82.6,0,0,0,0,0,0,993.4,1006.6
272,2019-08-12T04:31:00,0.8,西北西,1.5,西北西,25.8,83.6,0,0,0,0,0,0,993.4,1006.6
273,2019-08-12T04:32:00,0.9,西北西,1.6,西北西,26,83.6,0,0,0,0,0,0,993.4,1006.6
274,2019-08-12T04:33:00,0.9,西北西,1.6,西北西,26.1,83.1,0,0,0,0,0,0,993.4,1006.6
275,2019-08-12T04:34:00,1,北西,1.6,西北西,26.1,82.9,0,0,0,0,0,0,993.4,1006.6
276,2019-08-12T04:35:00,1,北西,1.6,西北西,26,83.1,0,0,0,0,0,0,993.4,1006.6
277,2019-08-12T04:36:00,1,北西,1.6,西北西,25.9,83.4,0,0,0,0,0,0,993.3,1006.5
278,2019-08-12T04:37:00,0.9,北西,1.6,西北西,25.9,83.4,0,0,0,0,0,0,993.3,1006.5
279,2019-08-12T04:38:00,0.9,北西,1.6,西北西,25.9,83.4,0,0,0,0,0,0,993.3,1006.5
280,2019-08-12T04:39:00,0.9,北西,1.6,西北西,25.8,83.5,0,0,0,0,0,0,993.3,1006.5
281,2019-08-12T04:40:00,0.9,北西,1.6,西北西,25.8,83.7,0,0,0,0,0,0,993.3,1006.5
282,2019-08-12T04:41:00,0.8,北北西,1.6,西北西,25.9,83.8,0,0,0,0,0,0,993.4,1006.6
283,2019-08-12T04:42:00,0.6,北北西,1.5,北北東,26,83.7,0,0,0,0,0,0,993.4,1006.6
284,2019-08-12T04:43:00,0.6,北北西,1.5,北北東,25.8,83.7,0,0,0,0,0,0,993.4,1006.6
285,2019-08-12T04:44:00,0.7,北,1.6,北北東,25.9,83.9,0,0,0,0,0,0,993.4,1006.6
286,2019-08-12T04:45:00,0.7,北,1.8,北,26,83.8,0,0,0,0,0,0,993.4,1006.6
287,2019-08-12T04:46:00,0.7,北,1.8,北,26.2,83.5,0,0,0,0,0,0,993.4,1006.6
288,2019-08-12T04:47:00,0.7,北,1.8,北,26,82.8,0,0,0,0,0,0,993.4,1006.6
289,2019-08-12T04:48:00,0.6,北,1.8,北,25.8,82.8,0,0,0,0,0,0,993.4,1006.6
290,2019-08-12T04:49:00,0.6,北,1.8,北,25.8,83.3,0,0,0,0,0,0,993.4,1006.6
291,2019-08-12T04:50:00,0.6,北,1.8,北,25.9,83.5,0,0,0,0,0,0,993.5,1006.7
292,2019-08-12T04:51:00,0.6,北,1.8,北,25.9,83.5,0,0,0,0,0,0,993.5,1006.7
293,2019-08-12T04:52:00,0.6,北北西,1.8,北,25.8,83.6,0,0,0,0,0,0,993.5,1006.7
294,2019-08-12T04:53:00,0.7,北北西,1.8,北,25.7,83.6,0,0,0,0,0,0,993.4,1006.6
295,2019-08-12T04:54:00,0.6,北西,1.8,北,25.9,84,0,0,0,0,0,0,993.5,1006.7
296,2019-08-12T04:55:00,,"",,"",,,,,,,,,,
297,2019-08-12T04:56:00,0.6,北西,1.3,北西,25.9,83.3,0,0,0,0,0,0,993.5,1006.7
298,2019-08-12T04:57:00,0.7,北西,1.6,北北東,25.8,83.2,0,0,0,0,0,0,993.5,1006.7
299,2019-08-12T04:58:00,0.7,北北西,1.6,北北東,25.9,83.5,0,0,0,0,0,0,993.5,1006.7
300,2019-08-12T04:59:00,0.8,北北西,1.6,北北東,25.9,83.3,0,0,0,0,0,0,993.5,1006.7
301,2019-08-12T05:00:00,0.9,北北西,1.6,北北東,26,83.3,0,0,0,0,0,0,993.5,1006.7
302,2019-08-12T05:01:00,0.8,北,1.6,北北東,26.1,82.8,0,0,0,0,0,0,993.5,1006.7
303,2019-08-12T05:02:00,0.8,北,1.6,北北東,26.3,82.5,0,0,0,0,0,0,993.5,1006.7
304,2019-08-12T05:03:00,0.8,北,1.6,北北東,26.1,81.7,0,0,0,0,0,0,993.5,1006.7
305,2019-08-12T05:04:00,0.8,北北東,1.6,北北東,26.1,81.9,0,0,0,0,0,0,993.5,1006.7
306,2019-08-12T05:05:00,0.7,北北東,1.6,北北東,26,82.1,0,0,0,0,0,0,993.5,1006.7
307,2019-08-12T05:06:00,0.7,北北東,1.6,北北東,26,82.4,0,0,0,0,0,0,993.6,1006.8
308,2019-08-12T05:07:00,0.6,北北東,1.6,北北東,25.9,82.6,0,0,0,0,0,0,993.5,1006.7
309,2019-08-12T05:08:00,0.5,北北東,1.4,北北東,26.1,82.6,0,0,0,0,0,0,993.5,1006.7
310,2019-08-12T05:09:00,0.5,北北東,1.5,北東,26,82.4,0,0,0,0,0,0,993.5,1006.7
311,2019-08-12T05:10:00,0.5,北北東,1.5,北東,26.2,82.4,0,0,0,0,0,0,993.5,1006.7
312,2019-08-12T05:11:00,0.6,北北東,1.5,北東,26.2,81.8,0,0,0,0,0,0,993.6,1006.8
313,2019-08-12T05:12:00,0.6,北北東,1.5,北東,26.1,81.8,0,0,0,0,0,0,993.6,1006.8
314,2019-08-12T05:13:00,0.6,北北東,1.5,北東,26.2,81.8,0,0,0,0,0,0,993.6,1006.8
315,2019-08-12T05:14:00,0.7,北北東,1.5,北東,26.2,81.7,0,0,0,0,0,0,993.6,1006.8
316,2019-08-12T05:15:00,0.8,北北東,1.6,北東,26.1,81.7,0,0,0,0,0,0,993.6,1006.8
317,2019-08-12T05:16:00,0.9,北北東,2.1,北,26.2,82,0,0,0,0,0,0,993.6,1006.8
318,2019-08-12T05:17:00,1,北北東,2.1,北,26.3,81.6,0,0,0,0,0,0,993.6,1006.8
319,2019-08-12T05:18:00,1.1,北北東,2.1,北,26.2,81.3,0,0,0,0,0,0,993.6,1006.8
320,2019-08-12T05:19:00,1,北北東,2.1,北,26.1,81.4,0,0,0,0,0,0,993.6,1006.8
321,2019-08-12T05:20:00,1,北北東,2.1,北,26.1,81.6,0,0,0,0,0,0,993.6,1006.8
322,2019-08-12T05:21:00,1,北北東,2.1,北,26,81.8,0,0,0,0,0,0,993.6,1006.8
323,2019-08-12T05:22:00,1,北,2.1,北,25.8,82.1,0,0,0,0,0,0,993.6,1006.8
324,2019-08-12T05:23:00,0.9,北,2.1,北,25.8,82.8,0,0,0,0,0,0,993.6,1006.8
325,2019-08-12T05:24:00,0.9,北,2.1,北,25.8,82.8,0,0,0,0,0,0,993.6,1006.8
326,2019-08-12T05:25:00,0.8,北北西,2.1,北,25.7,83.1,0,0,0,0,0,0,993.6,1006.8
327,2019-08-12T05:26:00,0.7,北北西,1.7,北北東,25.7,83.5,0,0,0,0,0,0,993.6,1006.8
328,2019-08-12T05:27:00,0.6,北,1.6,北,25.7,83.6,0,0,0,0,0,0,993.6,1006.8
329,2019-08-12T05:28:00,0.6,北,1.3,北東,25.8,83.7,0,0,0,0,0.01,0,993.6,1006.8
330,2019-08-12T05:29:00,0.5,北,1.2,北北東,25.9,83.6,0,0,0,0,0.01,0,993.7,1006.9
331,2019-08-12T05:30:00,0.5,北,1.2,北北東,26,83.4,0,0,0,0,0.01,0,993.7,1006.9
332,2019-08-12T05:31:00,0.5,北,1.2,北北東,25.9,83.1,0,0,0,0,0.01,0,993.7,1006.9
333,2019-08-12T05:32:00,0.4,北,1.1,北東,25.9,83.2,0,0,0,0,0.01,0,993.7,1006.9
334,2019-08-12T05:33:00,,"",,"",,,,,,,,,,
335,2019-08-12T05:34:00,0.6,北北東,1.7,北東,26.1,82.7,0,0,0,0,0.01,0,993.7,1006.9
336,2019-08-12T05:35:00,0.7,北北東,1.7,北東,26.2,82.3,0,0,0,0,0.01,0,993.7,1006.9
337,2019-08-12T05:36:00,0.7,北北東,1.9,北北東,26.3,81.9,0,0,0,0,0.01,0,993.7,1006.9
338,2019-08-12T05:37:00,0.7,北北東,1.9,北北東,26.1,81.5,0,0,0,0,0.02,0,993.7,1006.9
339,2019-08-12T05:38:00,0.7,北北東,1.9,北北東,26.3,81.7,0,0,0,0,0.02,0,993.7,1006.9